Tracking 29892 objects as of 21-Nov-2024
HD Live streaming from Space Station
objects crossing your sky now

CZ-6A DEB

Track CZ-6A DEB now!
10-day predictions


NORAD ID: 55872
Int'l Code: 2022-151ZU
Perigee: 834.1 km
Apogee: 893.6 km
Inclination: 98.8 °
Period: 102.1 minutes
Semi major axis: 7234 km
RCS: Unknown
Launch date: November 11, 2022
Source: People's Republic of China (PRC)
Launch site: Taiyaun Space Center, China (TSC)

Note: This is SATELLITE DEBRIS
Your satellite tracking list
Your tracking list is empty




NASA's NSSDC Master Catalog

Two Line Element Set (TLE):
1 55872U 22151ZU  24324.44905710  .00000559  00000-0  33374-3 0  9995
2 55872  98.8212 325.0417 0041165 137.2298 223.2088 14.10778832 91983
Source of the keplerian elements: AFSPC